Wednesday, January 17, 2018, 2:49 PM GMT
Back to Local

CXKT, Kentville , N. S.

Location: , , Canada Lat: 45.067
Local Time: 2:49 PM GMT (14:49 GMT) Lon: -64.483
Time Zone: GMT Elev: 160 ft

Show me the last for .
Show Decoded

2018-01-17 14:00 METAR CXKT 171400Z AUTO 04002KT M05/M05 RMK AO1 7PAST HR SOG 08 5004 SLP311
                 P0003 T10471054 50015 =
2018-01-17 13:00 METAR CXKT 171300Z AUTO 00000KT M05/M06 RMK AO1 7PAST HR SOG 07 8002 SLP310
                 P0003 T10521057 50007 =
2018-01-17 12:00 METAR CXKT 171200Z AUTO 00000KT M05/M06 RMK AO1 5PAST HR SOG 06 0007 SLP314
                 P0002 T10451061 50008 =
2018-01-17 11:00 METAR CXKT 171100Z AUTO 00000KT M05/M06 RMK AO1 2PAST HR SOG 06 3006 SLP315
                 P0001 T10451064 50002 =
2018-01-17 10:00 METAR CXKT 171000Z AUTO 17002KT M06/M06 RMK AO1 SOG 06 3003 SLP312 T10561055 =
2018-01-17 09:00 METAR CXKT 170900Z AUTO 17001KT M06/M07 RMK AO1 SOG 06 8003 SLP307 T10581067 =
2018-01-17 08:00 METAR CXKT 170800Z AUTO 20003KT M06/M07 RMK AO1 SOG 06 1001 SLP309 T10601070 =
2018-01-17 07:00 METAR CXKT 170700Z AUTO 22003KT M06/M07 RMK AO1 SOG 06 6006 SLP309 T10631073 =
2018-01-17 06:00 METAR CXKT 170600Z AUTO 20003KT M07/M08 RMK AO1 SOG 06 5007 SLP310 T10661076 =
2018-01-17 05:00 METAR CXKT 170500Z AUTO 22003KT M07/M08 RMK AO1 SOG 06 8007 SLP308 T10691079 =
2018-01-17 04:00 METAR CXKT 170400Z AUTO 25003KT M07/M08 RMK AO1 SOG 06 0001 SLP315 T10701081 =
2018-01-17 03:00 METAR CXKT 170300Z AUTO 27005KT M06/M07 RMK AO1 SOG 06 1006 SLP317 T10601072 =
2018-01-17 02:00 METAR CXKT 170200Z AUTO 27004KT M05/M06 RMK AO1 SOG 06 1009 SLP315 T10521064 =
2018-01-17 01:00 METAR CXKT 170100Z AUTO 27005KT M04/M06 RMK AO1 SOG 06 3010 SLP314 T10431056 =
2018-01-17 00:00 METAR CXKT 170000Z AUTO 24005KT M04/M05 RMK AO1 SOG 06 3009 SLP311 T10391051 =
2018-01-16 23:00 METAR CXKT 162300Z AUTO 25005KT M04/M05 RMK AO1 SOG 06 1010 SLP306 T10351047 =
2018-01-16 22:00 METAR CXKT 162200Z AUTO 24005KT M03/M04 RMK AO1 SOG 06 2010 SLP304 T10331043 =
2018-01-16 21:00 METAR CXKT 162100Z AUTO 27006KT M03/M04 RMK AO1 SOG 06 1018 SLP302 T10321038 =
2018-01-16 20:00 METAR CXKT 162000Z AUTO 33001KT M03/M04 RMK AO1 SOG 06 3008 SLP296 T10321038 =
2018-01-16 19:00 METAR CXKT 161900Z AUTO 29005KT M03/M04 RMK AO1 SOG 06 3005 SLP294 T10331040 =
2018-01-16 18:00 METAR CXKT 161800Z AUTO 28002KT M03/M04 RMK AO1 SOG 06 6014 SLP284 T10331041
                 50002 =
2018-01-16 17:00 METAR CXKT 161700Z AUTO 27002KT M03/M04 RMK AO1 SOG 06 6013 SLP288 T10251042
                 50002 =
2018-01-16 16:00 METAR CXKT 161600Z AUTO 33002KT M03/M04 RMK AO1 SOG 06 8002 SLP289 T10251042
                 50002 =
2018-01-16 15:00 METAR CXKT 161500Z AUTO 34003KT M04/M05 RMK AO1 2PAST HR SOG 06 0007 SLP298
                 P0001 T10401047 50002 =

Support USWX by starting your Amazon purchase here.